| time (UTC) | temp F | wind direction | speed MPH | gust MPH | rain 1hr in | rain 24hr in | rain mn in | humidity % | barometer mb |
| 20260831163520 | 94 | 154 | 4.0 | 10.0 | 0.00 | 0.00 | 0.00 | 38 | 1018.8 |
| 20260831163040 | 94 | 148 | 3.0 | 9.0 | 0.00 | 0.00 | 0.00 | 39 | 1018.8 |
| 20260831162518 | 94 | 194 | 2.0 | 8.0 | 0.00 | 0.00 | 0.00 | 41 | 1018.8 |
| 20260831162019 | 93 | 140 | 3.0 | 9.0 | 0.00 | 0.00 | 0.00 | 40 | 1018.7 |
| 20260831161542 | 92 | 166 | 3.0 | 9.0 | 0.00 | 0.00 | 0.00 | 42 | 1018.9 |
| 20260831161020 | 92 | 111 | 3.0 | 10.0 | 0.00 | 0.00 | 0.00 | 41 | 1018.8 |
| 20260831160525 | 92 | 159 | 4.0 | 10.0 | 0.00 | 0.00 | 0.00 | 43 | 1018.8 |
| 20260831160037 | 91 | 157 | 3.0 | 8.0 | 0.00 | 0.00 | 0.00 | 46 | 1018.8 |
| 20260831155520 | 90 | 200 | 3.0 | 8.0 | 0.00 | 0.00 | 0.00 | 46 | 1018.8 |
| 20260831155018 | 90 | 180 | 3.0 | 8.0 | 0.00 | 0.00 | 0.00 | 49 | 1018.8 |
| 20260831154604 | 90 | 224 | 2.0 | 8.0 | 0.00 | 0.00 | 0.00 | 47 | 1018.8 |
| 20260831154019 | 90 | 153 | 3.0 | 8.0 | 0.00 | 0.00 | 0.00 | 47 | 1018.8 |
| 20260831153522 | 89 | 163 | 2.0 | 8.0 | 0.00 | 0.00 | 0.00 | 48 | 1018.7 |
| 20260831153043 | 89 | 175 | 3.0 | 10.0 | 0.00 | 0.00 | 0.00 | 50 | 1018.6 |
| 20260831152521 | 87 | 180 | 3.0 | 11.0 | 0.00 | 0.00 | 0.00 | 52 | 1018.6 |
| 20260831152024 | 87 | 194 | 3.0 | 11.0 | 0.00 | 0.00 | 0.00 | 53 | 1018.6 |
| 20260831151541 | 86 | 219 | 4.0 | 12.0 | 0.00 | 0.00 | 0.00 | 54 | 1018.6 |
| 20260831151020 | 86 | 236 | 3.0 | 12.0 | 0.00 | 0.00 | 0.00 | 55 | 1018.5 |
| 20260831150522 | 87 | 192 | 2.0 | 9.0 | 0.00 | 0.00 | 0.00 | 55 | 1018.4 |
| 20260831150036 | 85 | 222 | 3.0 | 10.0 | 0.00 | 0.00 | 0.00 | 57 | 1018.5 |
| 20260831145517 | 85 | 192 | 3.0 | 10.0 | 0.00 | 0.00 | 0.00 | 58 | 1018.5 |
| 20260831145022 | 84 | 0 | 3.0 | 11.0 | 0.00 | 0.00 | 0.00 | 58 | 1018.5 |
| 20260831144542 | 84 | 213 | 5.0 | 11.0 | 0.00 | 0.00 | 0.00 | 60 | 1018.5 |
| 20260831144019 | 83 | 212 | 3.0 | 10.0 | 0.00 | 0.00 | 0.00 | 61 | 1018.4 |
| 20260831143517 | 83 | 200 | 2.0 | 10.0 | 0.00 | 0.00 | 0.00 | 63 | 1018.4 |
| 20260831143037 | 83 | 213 | 4.0 | 13.0 | 0.00 | 0.00 | 0.00 | 63 | 1018.4 |
| 20260831142516 | 82 | 229 | 5.0 | 13.0 | 0.00 | 0.00 | 0.00 | 63 | 1018.4 |
| 20260831142024 | 82 | 182 | 3.0 | 9.0 | 0.00 | 0.00 | 0.00 | 65 | 1018.4 |
| 20260831141539 | 82 | 160 | 3.0 | 7.0 | 0.00 | 0.00 | 0.00 | 66 | 1018.4 |
| 20260831141018 | 81 | 208 | 3.0 | 8.0 | 0.00 | 0.00 | 0.00 | 68 | 1018.3 |
| 20260831140521 | 80 | 178 | 2.0 | 9.0 | 0.00 | 0.00 | 0.00 | 69 | 1018.3 |
| 20260831140037 | 80 | 163 | 4.0 | 9.0 | 0.00 | 0.00 | 0.00 | 70 | 1018.3 |
| 20260831135518 | 79 | 196 | 2.0 | 8.0 | 0.00 | 0.00 | 0.00 | 71 | 1018.3 |
| 20260831135018 | 79 | 202 | 3.0 | 8.0 | 0.00 | 0.00 | 0.00 | 72 | 1018.2 |
| 20260831134544 | 78 | 149 | 2.0 | 7.0 | 0.00 | 0.00 | 0.00 | 73 | 1018.3 |
| 20260831134019 | 78 | 177 | 1.0 | 7.0 | 0.00 | 0.00 | 0.00 | 74 | 1018.1 |
| 20260831133519 | 77 | 158 | 2.0 | 5.0 | 0.00 | 0.00 | 0.00 | 75 | 1018.1 |
| 20260831133042 | 77 | 140 | 2.0 | 6.0 | 0.00 | 0.00 | 0.00 | 76 | 1018.1 |
| 20260831132519 | 76 | 165 | 2.0 | 6.0 | 0.00 | 0.00 | 0.00 | 77 | 1018.1 |
| 20260831132025 | 76 | 161 | 1.0 | 6.0 | 0.00 | 0.00 | 0.00 | 78 | 1018.0 |
| 20260831131538 | 75 | 155 | 1.0 | 6.0 | 0.00 | 0.00 | 0.00 | 79 | 1017.9 |
| 20260831131018 | 75 | 148 | 2.0 | 6.0 | 0.00 | 0.00 | 0.00 | 79 | 1017.9 |
| 20260831130518 | 74 | 156 | 2.0 | 6.0 | 0.00 | 0.00 | 0.00 | 80 | 1017.8 |
| 20260831130038 | 74 | 161 | 1.0 | 5.0 | 0.00 | 0.00 | 0.00 | 80 | 1017.7 |
| 20260831125520 | 73 | 146 | 2.0 | 5.0 | 0.00 | 0.00 | 0.00 | 81 | 1017.6 |
| 20260831125018 | 73 | 155 | 1.0 | 5.0 | 0.00 | 0.00 | 0.00 | 81 | 1017.5 |
| 20260831124551 | 73 | 144 | 1.0 | 5.0 | 0.00 | 0.00 | 0.00 | 82 | 1017.4 |
| 20260831124022 | 72 | 159 | 1.0 | 4.0 | 0.00 | 0.00 | 0.00 | 82 | 1017.5 |
| 20260831123518 | 72 | 153 | 1.0 | 4.0 | 0.00 | 0.00 | 0.00 | 82 | 1017.5 |
| 20260831123038 | 72 | 154 | 1.0 | 4.0 | 0.00 | 0.00 | 0.00 | 81 | 1017.4 |
| 20260831122518 | 72 | 163 | 0.0 | 4.0 | 0.00 | 0.00 | 0.00 | 81 | 1017.3 |
| 20260831122021 | 72 | 151 | 0.0 | 3.0 | 0.00 | 0.00 | 0.00 | 81 | 1017.3 |
| 20260831121536 | 72 | 0 | 1.0 | 3.0 | 0.00 | 0.00 | 0.00 | 81 | 1017.1 |
| 20260831121023 | 72 | 151 | 0.0 | 4.0 | 0.00 | 0.00 | 0.00 | 81 | 1017.0 |
| 20260831120521 | 73 | 175 | 1.0 | 4.0 | 0.00 | 0.00 | 0.00 | 80 | 1017.0 |
| 20260831120046 | 73 | 0 | 1.0 | 4.0 | 0.00 | 0.00 | 0.00 | 80 | 1016.9 |
| 20260831115519 | 73 | 147 | 1.0 | 5.0 | 0.00 | 0.00 | 0.00 | 80 | 1017.0 |
| 20260831115021 | 73 | 145 | 1.0 | 5.0 | 0.00 | 0.00 | 0.00 | 80 | 1017.0 |
| 20260831114548 | 73 | 155 | 2.0 | 5.0 | 0.00 | 0.00 | 0.00 | 80 | 1016.9 |
| 20260831114016 | 73 | 136 | 2.0 | 5.0 | 0.00 | 0.00 | 0.00 | 79 | 1016.8 |
| 20260831113518 | 73 | 146 | 2.0 | 5.0 | 0.00 | 0.00 | 0.00 | 80 | 1016.8 |
| 20260831113039 | 73 | 161 | 2.0 | 5.0 | 0.00 | 0.00 | 0.00 | 80 | 1016.7 |
| 20260831112518 | 72 | 124 | 1.0 | 5.0 | 0.00 | 0.00 | 0.00 | 80 | 1016.6 |
| 20260831112020 | 72 | 125 | 1.0 | 4.0 | 0.00 | 0.00 | 0.00 | 80 | 1016.4 |
| 20260831111537 | 72 | 149 | 1.0 | 4.0 | 0.00 | 0.00 | 0.00 | 80 | 1016.5 |
| 20260831111019 | 72 | 160 | 1.0 | 4.0 | 0.00 | 0.00 | 0.00 | 81 | 1016.4 |
| 20260831110518 | 72 | 160 | 0.0 | 2.0 | 0.00 | 0.00 | 0.00 | 80 | 1016.4 |
| 20260831110041 | 72 | 160 | 0.0 | 2.0 | 0.00 | 0.00 | 0.00 | 79 | 1016.3 |
| 20260831105522 | 72 | 0 | 0.0 | 2.0 | 0.00 | 0.00 | 0.00 | 79 | 1016.4 |
| 20260831105023 | 72 | 160 | 0.0 | 2.0 | 0.00 | 0.00 | 0.00 | 78 | 1016.3 |
| 20260831104549 | 72 | 160 | 0.0 | 4.0 | 0.00 | 0.00 | 0.00 | 79 | 1016.4 |
| 20260831104016 | 72 | 160 | 1.0 | 4.0 | 0.00 | 0.00 | 0.00 | 79 | 1016.5 |
| 20260831103516 | 72 | 0 | 0.0 | 2.0 | 0.00 | 0.00 | 0.00 | 79 | 1016.5 |
| 20260831103038 | 73 | 160 | 0.0 | 2.0 | 0.00 | 0.00 | 0.00 | 78 | 1016.5 |
| 20260831102519 | 73 | 160 | 0.0 | 1.0 | 0.00 | 0.00 | 0.00 | 77 | 1016.4 |
| 20260831102019 | 74 | 0 | 0.0 | 0.0 | 0.00 | 0.00 | 0.00 | 77 | 1016.5 |
| 20260831101537 | 74 | 0 | 0.0 | 0.0 | 0.00 | 0.00 | 0.00 | 77 | 1016.4 |
| 20260831101018 | 74 | 0 | 0.0 | 0.0 | 0.00 | 0.00 | 0.00 | 77 | 1016.4 |
| 20260831100517 | 74 | 0 | 0.0 | 0.0 | 0.00 | 0.00 | 0.00 | 77 | 1016.4 |
| 20260831100042 | 74 | 0 | 0.0 | 0.0 | 0.00 | 0.00 | 0.00 | 76 | 1016.4 |
| 20260831095517 | 74 | 0 | 0.0 | 0.0 | 0.00 | 0.00 | 0.00 | 76 | 1016.4 |
| 20260831095019 | 75 | 0 | 0.0 | 1.0 | 0.00 | 0.00 | 0.00 | 75 | 1016.4 |
| 20260831094535 | 76 | 0 | 0.0 | 1.0 | 0.00 | 0.00 | 0.00 | 74 | 1016.4 |
| 20260831094016 | 76 | 0 | 0.0 | 0.0 | 0.00 | 0.00 | 0.00 | 74 | 1016.4 |
| 20260831093519 | 76 | 0 | 0.0 | 0.0 | 0.00 | 0.00 | 0.00 | 74 | 1016.4 |
| 20260831093042 | 76 | 0 | 0.0 | 0.0 | 0.00 | 0.00 | 0.00 | 73 | 1016.4 |
| 20260831092518 | 76 | 0 | 0.0 | 1.0 | 0.00 | 0.00 | 0.00 | 73 | 1016.3 |
| 20260831092020 | 77 | 0 | 0.0 | 1.0 | 0.00 | 0.00 | 0.00 | 73 | 1016.3 |
| 20260831091535 | 77 | 160 | 0.0 | 1.0 | 0.00 | 0.00 | 0.00 | 72 | 1016.2 |
| 20260831091023 | 77 | 0 | 0.0 | 1.0 | 0.00 | 0.00 | 0.00 | 72 | 1016.3 |
| 20260831090517 | 77 | 0 | 0.0 | 1.0 | 0.00 | 0.00 | 0.00 | 71 | 1016.2 |
| 20260831090038 | 77 | 0 | 0.0 | 1.0 | 0.00 | 0.00 | 0.00 | 71 | 1016.2 |
| 20260831085519 | 77 | 0 | 0.0 | 3.0 | 0.00 | 0.00 | 0.00 | 71 | 1016.3 |
| 20260831085019 | 78 | 0 | 0.0 | 3.0 | 0.00 | 0.00 | 0.00 | 70 | 1016.2 |
| 20260831084537 | 78 | 202 | 0.0 | 3.0 | 0.00 | 0.00 | 0.00 | 70 | 1016.3 |
| 20260831084017 | 78 | 159 | 0.0 | 4.0 | 0.00 | 0.00 | 0.00 | 69 | 1016.3 |
| 20260831083519 | 78 | 159 | 0.0 | 4.0 | 0.00 | 0.00 | 0.00 | 69 | 1016.2 |
| 20260831083046 | 78 | 0 | 0.0 | 2.0 | 0.00 | 0.00 | 0.00 | 69 | 1016.3 |
| 20260831082516 | 78 | 175 | 0.0 | 2.0 | 0.00 | 0.00 | 0.00 | 68 | 1016.2 |
| 20260831082017 | 79 | 175 | 0.0 | 5.0 | 0.00 | 0.00 | 0.00 | 68 | 1016.3 |
| 20260831081537 | 79 | 153 | 1.0 | 5.0 | 0.00 | 0.00 | 0.00 | 67 | 1016.3 |
| 20260831081022 | 79 | 136 | 1.0 | 5.0 | 0.00 | 0.00 | 0.00 | 67 | 1016.3 |
| 20260831080519 | 79 | 161 | 1.0 | 5.0 | 0.00 | 0.00 | 0.00 | 66 | 1016.3 |
| 20260831080041 | 79 | 145 | 1.0 | 5.0 | 0.00 | 0.00 | 0.00 | 66 | 1016.3 |
| 20260831075520 | 80 | 168 | 2.0 | 7.0 | 0.00 | 0.00 | 0.00 | 65 | 1016.3 |
| 20260831075019 | 80 | 155 | 1.0 | 7.0 | 0.00 | 0.00 | 0.00 | 65 | 1016.3 |
| 20260831074541 | 80 | 142 | 2.0 | 7.0 | 0.00 | 0.00 | 0.00 | 64 | 1016.3 |
| 20260831074027 | 80 | 148 | 2.0 | 6.0 | 0.00 | 0.00 | 0.00 | 64 | 1016.4 |
| 20260831073518 | 80 | 144 | 2.0 | 5.0 | 0.00 | 0.00 | 0.00 | 63 | 1016.4 |
| 20260831073053 | 80 | 148 | 2.0 | 9.0 | 0.00 | 0.00 | 0.00 | 63 | 1016.4 |
| 20260831072524 | 80 | 180 | 2.0 | 9.0 | 0.00 | 0.00 | 0.00 | 63 | 1016.4 |
| 20260831072020 | 80 | 153 | 2.0 | 7.0 | 0.00 | 0.00 | 0.00 | 63 | 1016.4 |
| 20260831071540 | 81 | 194 | 2.0 | 8.0 | 0.00 | 0.00 | 0.00 | 63 | 1016.3 |
| 20260831071018 | 81 | 158 | 1.0 | 9.0 | 0.00 | 0.00 | 0.00 | 62 | 1016.3 |
| 20260831070521 | 81 | 155 | 2.0 | 9.0 | 0.00 | 0.00 | 0.00 | 62 | 1016.3 |
| 20260831070049 | 81 | 161 | 3.0 | 9.0 | 0.00 | 0.00 | 0.00 | 61 | 1016.4 |
| 20260831065520 | 81 | 153 | 2.0 | 7.0 | 0.00 | 0.00 | 0.00 | 61 | 1016.3 |
| 20260831065021 | 81 | 149 | 2.0 | 7.0 | 0.00 | 0.00 | 0.00 | 61 | 1016.3 |
| 20260831064545 | 81 | 183 | 3.0 | 7.0 | 0.00 | 0.00 | 0.00 | 60 | 1016.2 |
| 20260831064026 | 81 | 157 | 3.0 | 8.0 | 0.00 | 0.00 | 0.00 | 60 | 1016.2 |
| 20260831063518 | 81 | 152 | 2.0 | 8.0 | 0.00 | 0.00 | 0.00 | 59 | 1016.3 |
| 20260831063043 | 81 | 162 | 2.0 | 8.0 | 0.00 | 0.00 | 0.00 | 58 | 1016.3 |
| 20260831062521 | 81 | 140 | 3.0 | 8.0 | 0.00 | 0.00 | 0.00 | 57 | 1016.3 |
| 20260831062022 | 81 | 148 | 4.0 | 9.0 | 0.00 | 0.00 | 0.00 | 57 | 1016.3 |
| 20260831061549 | 81 | 157 | 3.0 | 9.0 | 0.00 | 0.00 | 0.00 | 56 | 1016.3 |
| 20260831061018 | 81 | 166 | 3.0 | 8.0 | 0.00 | 0.00 | 0.00 | 56 | 1016.3 |
| 20260831060521 | 81 | 146 | 3.0 | 8.0 | 0.00 | 0.00 | 0.00 | 55 | 1016.3 |
| 20260831060045 | 81 | 160 | 3.0 | 8.0 | 0.00 | 0.00 | 0.00 | 55 | 1016.4 |
| 20260831055518 | 80 | 163 | 3.0 | 8.0 | 0.00 | 0.00 | 0.00 | 56 | 1016.4 |
| 20260831055023 | 79 | 157 | 2.0 | 5.0 | 0.00 | 0.00 | 0.00 | 56 | 1016.4 |
| 20260831054541 | 79 | 161 | 1.0 | 4.0 | 0.00 | 0.00 | 0.00 | 56 | 1016.3 |
| 20260831054023 | 79 | 183 | 1.0 | 4.0 | 0.00 | 0.00 | 0.00 | 57 | 1016.3 |
| 20260831053524 | 78 | 134 | 0.0 | 4.0 | 0.00 | 0.00 | 0.00 | 56 | 1016.3 |
| 20260831053045 | 78 | 153 | 0.0 | 2.0 | 0.00 | 0.00 | 0.00 | 56 | 1016.3 |
| 20260831052520 | 79 | 154 | 0.0 | 2.0 | 0.00 | 0.00 | 0.00 | 56 | 1016.3 |
| 20260831052020 | 79 | 0 | 0.0 | 2.0 | 0.00 | 0.00 | 0.00 | 56 | 1016.2 |
| 20260831051542 | 79 | 148 | 0.0 | 2.0 | 0.00 | 0.00 | 0.00 | 56 | 1016.3 |
| 20260831051021 | 79 | 0 | 0.0 | 3.0 | 0.00 | 0.00 | 0.00 | 55 | 1016.3 |
| 20260831050520 | 79 | 0 | 0.0 | 3.0 | 0.00 | 0.00 | 0.00 | 55 | 1016.3 |
| 20260831050058 | 79 | 165 | 0.0 | 2.0 | 0.00 | 0.00 | 0.00 | 55 | 1016.3 |
| 20260831045518 | 79 | 0 | 0.0 | 2.0 | 0.00 | 0.00 | 0.00 | 54 | 1016.3 |
| 20260831045025 | 80 | 157 | 0.0 | 2.0 | 0.00 | 0.00 | 0.00 | 54 | 1016.2 |
| 20260831044559 | 80 | 157 | 0.0 | 2.0 | 0.00 | 0.00 | 0.00 | 53 | 1016.3 |
| 20260831044018 | 80 | 0 | 0.0 | 4.0 | 0.00 | 0.00 | 0.00 | 53 | 1016.3 |
| 20260831043521 | 81 | 157 | 0.0 | 4.0 | 0.00 | 0.00 | 0.00 | 52 | 1016.2 |
| 20260831043042 | 81 | 0 | 1.0 | 4.0 | 0.00 | 0.00 | 0.00 | 52 | 1016.2 |
| 20260831042518 | 81 | 0 | 1.0 | 4.0 | 0.00 | 0.00 | 0.00 | 52 | 1016.2 |
| 20260831042021 | 81 | 150 | 1.0 | 4.0 | 0.00 | 0.00 | 0.00 | 52 | 1016.2 |
| 20260831041541 | 81 | 132 | 1.0 | 4.0 | 0.00 | 0.00 | 0.00 | 52 | 1016.1 |
| 20260831041020 | 81 | 126 | 1.0 | 3.0 | 0.00 | 0.00 | 0.00 | 51 | 1016.1 |
| 20260831040520 | 81 | 138 | 1.0 | 3.0 | 0.00 | 0.00 | 0.00 | 51 | 1016.1 |
| 20260831040043 | 81 | 134 | 0.0 | 3.0 | 0.00 | 0.00 | 0.00 | 51 | 1016.0 |
| 20260831035520 | 81 | 136 | 0.0 | 2.0 | 0.00 | 0.00 | 0.00 | 51 | 1016.0 |
| 20260831035019 | 81 | 138 | 0.0 | 4.0 | 0.00 | 0.00 | 0.00 | 51 | 1016.0 |
| 20260831034542 | 81 | 127 | 0.0 | 4.0 | 0.00 | 0.00 | 0.00 | 51 | 1016.0 |
| 20260831034020 | 81 | 0 | 0.0 | 3.0 | 0.00 | 0.00 | 0.00 | 51 | 1015.9 |
| 20260831033522 | 82 | 0 | 0.0 | 3.0 | 0.00 | 0.00 | 0.00 | 50 | 1015.9 |
| 20260831033043 | 83 | 137 | 0.0 | 5.0 | 0.00 | 0.00 | 0.00 | 49 | 1015.9 |
| 20260831032525 | 84 | 125 | 1.0 | 5.0 | 0.00 | 0.00 | 0.00 | 47 | 1015.9 |
| 20260831032020 | 84 | 146 | 1.0 | 5.0 | 0.00 | 0.00 | 0.00 | 47 | 1015.8 |
| 20260831031546 | 84 | 153 | 2.0 | 5.0 | 0.00 | 0.00 | 0.00 | 47 | 1015.7 |
| 20260831031018 | 85 | 157 | 2.0 | 7.0 | 0.00 | 0.00 | 0.00 | 46 | 1015.7 |
| 20260831030521 | 85 | 142 | 2.0 | 7.0 | 0.00 | 0.00 | 0.00 | 46 | 1015.6 |
| 20260831030041 | 85 | 146 | 2.0 | 6.0 | 0.00 | 0.00 | 0.00 | 46 | 1015.6 |
| 20260831025521 | 85 | 152 | 1.0 | 8.0 | 0.00 | 0.00 | 0.00 | 46 | 1015.5 |
| 20260831025019 | 85 | 144 | 2.0 | 8.0 | 0.00 | 0.00 | 0.00 | 46 | 1015.4 |
| 20260831024606 | 85 | 133 | 2.0 | 6.0 | 0.00 | 0.00 | 0.00 | 45 | 1015.3 |
| 20260831024020 | 86 | 130 | 3.0 | 6.0 | 0.00 | 0.00 | 0.00 | 45 | 1015.3 |
| 20260831023520 | 86 | 150 | 2.0 | 7.0 | 0.00 | 0.00 | 0.00 | 45 | 1015.2 |
| 20260831023040 | 86 | 109 | 2.0 | 8.0 | 0.00 | 0.00 | 0.00 | 44 | 1015.2 |
| 20260831022519 | 86 | 135 | 3.0 | 8.0 | 0.00 | 0.00 | 0.00 | 44 | 1015.1 |
| 20260831022023 | 86 | 107 | 2.0 | 7.0 | 0.00 | 0.00 | 0.00 | 43 | 1015.0 |
| 20260831021544 | 87 | 150 | 2.0 | 7.0 | 0.00 | 0.00 | 0.00 | 43 | 1015.0 |
| 20260831021020 | 87 | 112 | 1.0 | 7.0 | 0.00 | 0.00 | 0.00 | 42 | 1014.7 |
| 20260831020520 | 87 | 144 | 3.0 | 7.0 | 0.00 | 0.00 | 0.00 | 42 | 1014.6 |
| 20260831020103 | 87 | 148 | 2.0 | 7.0 | 0.00 | 0.00 | 0.00 | 42 | 1014.6 |
| 20260831015519 | 87 | 144 | 2.0 | 6.0 | 0.00 | 0.00 | 0.00 | 42 | 1014.5 |
| 20260831015019 | 87 | 171 | 1.0 | 7.0 | 0.00 | 0.00 | 0.00 | 42 | 1014.5 |
| 20260831014558 | 88 | 143 | 1.0 | 7.0 | 0.00 | 0.00 | 0.00 | 41 | 1014.3 |
| 20260831014018 | 88 | 157 | 2.0 | 7.0 | 0.00 | 0.00 | 0.00 | 41 | 1014.2 |
| 20260831013523 | 88 | 145 | 2.0 | 7.0 | 0.00 | 0.00 | 0.00 | 41 | 1014.2 |
| 20260831013041 | 88 | 121 | 2.0 | 7.0 | 0.00 | 0.00 | 0.00 | 40 | 1014.1 |
| 20260831012520 | 89 | 109 | 2.0 | 7.0 | 0.00 | 0.00 | 0.00 | 40 | 1014.1 |
| 20260831012017 | 89 | 125 | 2.0 | 7.0 | 0.00 | 0.00 | 0.00 | 39 | 1013.9 |
| 20260831011542 | 89 | 157 | 1.0 | 7.0 | 0.00 | 0.00 | 0.00 | 39 | 1013.9 |
| 20260831011017 | 90 | 149 | 2.0 | 7.0 | 0.00 | 0.00 | 0.00 | 38 | 1013.8 |
| 20260831010524 | 90 | 131 | 2.0 | 8.0 | 0.00 | 0.00 | 0.00 | 37 | 1013.9 |
| 20260831010047 | 91 | 152 | 2.0 | 8.0 | 0.00 | 0.00 | 0.00 | 37 | 1013.9 |
| 20260831005519 | 91 | 136 | 3.0 | 8.0 | 0.00 | 0.00 | 0.00 | 36 | 1013.9 |
| 20260831005023 | 91 | 159 | 3.0 | 8.0 | 0.00 | 0.00 | 0.00 | 35 | 1013.9 |
| 20260831004541 | 92 | 159 | 1.0 | 7.0 | 0.00 | 0.00 | 0.00 | 34 | 1013.8 |
| 20260831004019 | 93 | 140 | 2.0 | 8.0 | 0.00 | 0.00 | 0.00 | 34 | 1013.8 |
| 20260831003521 | 93 | 149 | 3.0 | 8.0 | 0.00 | 0.00 | 0.00 | 33 | 1013.8 |
| 20260831003043 | 93 | 153 | 2.0 | 7.0 | 0.00 | 0.00 | 0.00 | 33 | 1013.8 |
| 20260831002521 | 94 | 159 | 2.0 | 7.0 | 0.00 | 0.00 | 0.00 | 33 | 1013.8 |
| 20260831002018 | 94 | 144 | 2.0 | 7.0 | 0.00 | 0.00 | 0.00 | 32 | 1013.8 |
| 20260831001551 | 94 | 144 | 3.0 | 8.0 | 0.00 | 0.00 | 0.00 | 32 | 1013.8 |
| 20260831001020 | 95 | 136 | 3.0 | 8.0 | 0.00 | 0.00 | 0.00 | 32 | 1013.8 |
| 20260831000521 | 95 | 166 | 2.0 | 10.0 | 0.00 | 0.00 | 0.00 | 31 | 1013.8 |
| 20260831000041 | 95 | 159 | 3.0 | 10.0 | 0.00 | 0.00 | 0.00 | 31 | 1013.8 |
| 20260830235525 | 96 | 130 | 5.0 | 10.0 | 0.00 | 0.00 | 0.00 | 31 | 1013.8 |
| 20260830235023 | 96 | 147 | 3.0 | 10.0 | 0.00 | 0.00 | 0.00 | 30 | 1013.7 |
| 20260830234605 | 97 | 134 | 3.0 | 10.0 | 0.00 | 0.00 | 0.00 | 29 | 1013.8 |
| 20260830234019 | 97 | 141 | 4.0 | 10.0 | 0.00 | 0.00 | 0.00 | 29 | 1013.8 |
| 20260830233520 | 97 | 112 | 2.0 | 9.0 | 0.00 | 0.00 | 0.00 | 29 | 1013.6 |
| 20260830233042 | 98 | 178 | 2.0 | 8.0 | 0.00 | 0.00 | 0.00 | 28 | 1013.7 |
| 20260830232519 | 98 | 155 | 3.0 | 8.0 | 0.00 | 0.00 | 0.00 | 27 | 1013.8 |
| 20260830232021 | 98 | 126 | 3.0 | 10.0 | 0.00 | 0.00 | 0.00 | 27 | 1013.9 |
| 20260830231542 | 98 | 180 | 3.0 | 10.0 | 0.00 | 0.00 | 0.00 | 27 | 1013.9 |
| 20260830231019 | 99 | 135 | 3.0 | 9.0 | 0.00 | 0.00 | 0.00 | 27 | 1014.0 |
| 20260830230518 | 99 | 167 | 3.0 | 9.0 | 0.00 | 0.00 | 0.00 | 27 | 1014.0 |
| 20260830230039 | 99 | 150 | 3.0 | 9.0 | 0.00 | 0.00 | 0.00 | 27 | 1013.8 |
| 20260830225517 | 99 | 155 | 1.0 | 5.0 | 0.00 | 0.00 | 0.00 | 27 | 1013.9 |
| 20260830225022 | 99 | 150 | 1.0 | 8.0 | 0.00 | 0.00 | 0.00 | 26 | 1014.0 |
| 20260830224543 | 99 | 154 | 3.0 | 10.0 | 0.00 | 0.00 | 0.00 | 26 | 1014.0 |
| 20260830224019 | 99 | 140 | 3.0 | 11.0 | 0.00 | 0.00 | 0.00 | 26 | 1014.1 |
| 20260830223519 | 99 | 140 | 4.0 | 11.0 | 0.00 | 0.00 | 0.00 | 26 | 1014.0 |
| 20260830223042 | 100 | 149 | 2.0 | 10.0 | 0.00 | 0.00 | 0.00 | 26 | 1014.0 |
| 20260830222518 | 100 | 211 | 4.0 | 10.0 | 0.00 | 0.00 | 0.00 | 26 | 1014.0 |
| 20260830222022 | 100 | 158 | 3.0 | 9.0 | 0.00 | 0.00 | 0.00 | 26 | 1014.0 |
| 20260830221541 | 100 | 167 | 3.0 | 9.0 | 0.00 | 0.00 | 0.00 | 26 | 1014.1 |
| 20260830221016 | 100 | 146 | 3.0 | 8.0 | 0.00 | 0.00 | 0.00 | 26 | 1014.1 |
| 20260830220516 | 101 | 95 | 1.0 | 9.0 | 0.00 | 0.00 | 0.00 | 26 | 1014.1 |
| 20260830220043 | 100 | 129 | 2.0 | 9.0 | 0.00 | 0.00 | 0.00 | 26 | 1014.1 |
| 20260830215520 | 100 | 151 | 2.0 | 15.0 | 0.00 | 0.00 | 0.00 | 26 | 1014.1 |
| 20260830215020 | 101 | 187 | 2.0 | 15.0 | 0.00 | 0.00 | 0.00 | 26 | 1014.1 |
| 20260830214540 | 101 | 129 | 7.0 | 14.0 | 0.00 | 0.00 | 0.00 | 25 | 1014.0 |
| 20260830214019 | 102 | 119 | 3.0 | 9.0 | 0.00 | 0.00 | 0.00 | 26 | 1014.2 |
| 20260830213516 | 100 | 134 | 3.0 | 11.0 | 0.00 | 0.00 | 0.00 | 26 | 1014.2 |
| 20260830213042 | 102 | 153 | 3.0 | 12.0 | 0.00 | 0.00 | 0.00 | 25 | 1014.3 |
| 20260830212519 | 101 | 151 | 6.0 | 12.0 | 0.00 | 0.00 | 0.00 | 25 | 1014.4 |
| 20260830212023 | 101 | 92 | 3.0 | 11.0 | 0.00 | 0.00 | 0.00 | 26 | 1014.6 |
| 20260830211541 | 100 | 121 | 3.0 | 8.0 | 0.00 | 0.00 | 0.00 | 27 | 1014.5 |
| 20260830211019 | 98 | 318 | 2.0 | 11.0 | 0.00 | 0.00 | 0.00 | 27 | 1014.6 |
| 20260830210520 | 100 | 132 | 4.0 | 11.0 | 0.00 | 0.00 | 0.00 | 27 | 1015.0 |
| 20260830210038 | 101 | 150 | 4.0 | 10.0 | 0.00 | 0.00 | 0.00 | 26 | 1015.0 |
| 20260830205518 | 102 | 125 | 3.0 | 8.0 | 0.00 | 0.00 | 0.00 | 26 | 1015.0 |
| 20260830205024 | 101 | 161 | 3.0 | 11.0 | 0.00 | 0.00 | 0.00 | 26 | 1014.9 |
| 20260830204541 | 101 | 144 | 6.0 | 13.0 | 0.00 | 0.00 | 0.00 | 26 | 1015.1 |
| 20260830204018 | 100 | 164 | 2.0 | 14.0 | 0.00 | 0.00 | 0.00 | 26 | 1015.1 |
| 20260830203519 | 102 | 130 | 6.0 | 14.0 | 0.00 | 0.00 | 0.00 | 25 | 1015.2 |
| 20260830203037 | 102 | 185 | 4.0 | 13.0 | 0.00 | 0.00 | 0.00 | 26 | 1015.2 |
| 20260830202524 | 100 | 117 | 2.0 | 7.0 | 0.00 | 0.00 | 0.00 | 27 | 1015.3 |
| 20260830202018 | 100 | 110 | 2.0 | 8.0 | 0.00 | 0.00 | 0.00 | 27 | 1015.4 |
| 20260830201605 | 101 | 159 | 2.0 | 10.0 | 0.00 | 0.00 | 0.00 | 27 | 1015.5 |
| 20260830201021 | 102 | 255 | 5.0 | 10.0 | 0.00 | 0.00 | 0.00 | 26 | 1015.6 |
| 20260830200519 | 102 | 153 | 3.0 | 7.0 | 0.00 | 0.00 | 0.00 | 27 | 1015.7 |
| 20260830200040 | 100 | 145 | 2.0 | 8.0 | 0.00 | 0.00 | 0.00 | 28 | 1015.7 |
| 20260830195517 | 100 | 228 | 2.0 | 12.0 | 0.00 | 0.00 | 0.00 | 27 | 1015.7 |
| 20260830195016 | 101 | 146 | 5.0 | 12.0 | 0.00 | 0.00 | 0.00 | 27 | 1015.8 |
| 20260830194545 | 102 | 196 | 3.0 | 12.0 | 0.00 | 0.00 | 0.00 | 27 | 1015.6 |
| 20260830194024 | 101 | 166 | 3.0 | 9.0 | 0.00 | 0.00 | 0.00 | 28 | 1015.9 |
| 20260830193520 | 101 | 188 | 4.0 | 9.0 | 0.00 | 0.00 | 0.00 | 27 | 1015.9 |
| 20260830193043 | 101 | 192 | 3.0 | 8.0 | 0.00 | 0.00 | 0.00 | 29 | 1016.0 |
| 20260830192520 | 99 | 138 | 1.0 | 8.0 | 0.00 | 0.00 | 0.00 | 29 | 1016.1 |
| 20260830192019 | 102 | 221 | 2.0 | 12.0 | 0.00 | 0.00 | 0.00 | 28 | 1016.1 |
| 20260830191547 | 100 | 0 | 1.0 | 12.0 | 0.00 | 0.00 | 0.00 | 29 | 1016.1 |
| 20260830191026 | 101 | 217 | 4.0 | 10.0 | 0.00 | 0.00 | 0.00 | 29 | 1016.2 |
| 20260830190520 | 100 | 209 | 3.0 | 10.0 | 0.00 | 0.00 | 0.00 | 29 | 1016.2 |
| 20260830190039 | 101 | 201 | 2.0 | 8.0 | 0.00 | 0.00 | 0.00 | 29 | 1016.3 |
| 20260830185520 | 101 | 154 | 2.0 | 10.0 | 0.00 | 0.00 | 0.00 | 29 | 1016.4 |
| 20260830185021 | 100 | 178 | 3.0 | 10.0 | 0.00 | 0.00 | 0.00 | 29 | 1016.5 |
| 20260830184541 | 99 | 200 | 3.0 | 8.0 | 0.00 | 0.00 | 0.00 | 31 | 1016.5 |
| 20260830184019 | 98 | 155 | 2.0 | 11.0 | 0.00 | 0.00 | 0.00 | 32 | 1016.5 |
| 20260830183520 | 100 | 209 | 1.0 | 11.0 | 0.00 | 0.00 | 0.00 | 30 | 1016.7 |
| 20260830183036 | 100 | 171 | 5.0 | 11.0 | 0.00 | 0.00 | 0.00 | 28 | 1016.7 |
| 20260830182518 | 100 | 169 | 2.0 | 7.0 | 0.00 | 0.00 | 0.00 | 31 | 1016.8 |
| 20260830182021 | 100 | 137 | 2.0 | 12.0 | 0.00 | 0.00 | 0.00 | 31 | 1017.0 |
| 20260830181548 | 100 | 150 | 4.0 | 14.0 | 0.00 | 0.00 | 0.00 | 32 | 1017.0 |
| 20260830181020 | 99 | 138 | 5.0 | 14.0 | 0.00 | 0.00 | 0.00 | 32 | 1017.0 |
| 20260830180520 | 99 | 220 | 3.0 | 9.0 | 0.00 | 0.00 | 0.00 | 33 | 1017.1 |
| 20260830180042 | 99 | 189 | 2.0 | 11.0 | 0.00 | 0.00 | 0.00 | 33 | 1017.3 |
| 20260830175519 | 97 | 196 | 4.0 | 11.0 | 0.00 | 0.00 | 0.00 | 35 | 1017.3 |
| 20260830175020 | 95 | 157 | 3.0 | 8.0 | 0.00 | 0.00 | 0.00 | 37 | 1017.5 |
| 20260830174540 | 96 | 253 | 2.0 | 9.0 | 0.00 | 0.00 | 0.00 | 36 | 1017.5 |
| 20260830174020 | 98 | 159 | 3.0 | 9.0 | 0.00 | 0.00 | 0.00 | 35 | 1017.6 |
| 20260830173518 | 98 | 150 | 3.0 | 8.0 | 0.00 | 0.00 | 0.00 | 36 | 1017.8 |
| 20260830173039 | 98 | 94 | 2.0 | 9.0 | 0.00 | 0.00 | 0.00 | 36 | 1017.8 |
| 20260830172519 | 97 | 171 | 4.0 | 9.0 | 0.00 | 0.00 | 0.00 | 37 | 1017.9 |
| 20260830172018 | 95 | 161 | 1.0 | 10.0 | 0.00 | 0.00 | 0.00 | 39 | 1018.0 |
| 20260830171542 | 97 | 190 | 3.0 | 10.0 | 0.00 | 0.00 | 0.00 | 36 | 1018.1 |
| 20260830171018 | 97 | 143 | 3.0 | 10.0 | 0.00 | 0.00 | 0.00 | 38 | 1018.1 |
| 20260830170518 | 96 | 159 | 3.0 | 11.0 | 0.00 | 0.00 | 0.00 | 38 | 1018.2 |
| 20260830170041 | 96 | 177 | 5.0 | 11.0 | 0.00 | 0.00 | 0.00 | 38 | 1018.3 |
| 20260830165517 | 96 | 144 | 4.0 | 11.0 | 0.00 | 0.00 | 0.00 | 40 | 1018.3 |
| 20260830165016 | 96 | 151 | 4.0 | 11.0 | 0.00 | 0.00 | 0.00 | 39 | 1018.4 |
| 20260830164539 | 96 | 159 | 3.0 | 10.0 | 0.00 | 0.00 | 0.00 | 40 | 1018.4 |
| 20260830164021 | 95 | 171 | 3.0 | 12.0 | 0.00 | 0.00 | 0.00 | 41 | 1018.3 |